• în România
  • Lista ţărilor
  • Pe 7 zile
  • Temperatura apei
  • Hartă satelitară
  • Meteo pe hartă
  • Widget-uri
  • user-avatar
    Intrare

    Meteo pe oră la Salzburg

    Astăzi, 16 Iulie, Luni

    Timp Temperatura Precipitaţii Vânt Presiune Umiditate
    00:00 +8°C° 0 mm 1 m/s 627 mmHg 87%
    01:00 +8°C° 0 mm 1 m/s 626 mmHg 86%
    02:00 +8°C° 0 mm 1 m/s 626 mmHg 85%
    03:00 +8°C° 0 mm 1 m/s 626 mmHg 84%
    04:00 +8°C° 0 mm 1 m/s 626 mmHg 83%
    05:00 +9°C° 0 mm 1 m/s 627 mmHg 79%
    06:00 +11°C° 0 mm 1 m/s 627 mmHg 74%
    07:00 +13°C° 0 mm 1 m/s 628 mmHg 69%
    08:00 +15°C° 0 mm 1 m/s 628 mmHg 61%
    09:00 +18°C° 0 mm 1 m/s 629 mmHg 53%
    10:00 +21°C° 0 mm 1 m/s 629 mmHg 45%
    11:00 +21°C° 0,2 mm 1 m/s 629 mmHg 45%
    12:00 +21°C° 0,2 mm 1 m/s 629 mmHg 45%
    13:00 +21°C° 0,2 mm 1 m/s 629 mmHg 44%
    14:00 +20°C° 0,6 mm 1 m/s 628 mmHg 51%
    15:00 +19°C° 0,6 mm 1 m/s 627 mmHg 58%
    16:00 +18°C° 0,6 mm 1 m/s 627 mmHg 64%
    17:00 +16°C° 0,6 mm 1 m/s 627 mmHg 71%
    18:00 +14°C° 0,6 mm 0 m/s 626 mmHg 78%
    19:00 +13°C° 0,6 mm 0 m/s 626 mmHg 84%
    20:00 +12°C° 0,1 mm 0 m/s 625 mmHg 86%
    21:00 +11°C° 0,1 mm 1 m/s 625 mmHg 89%
    22:00 +10°C° 0,1 mm 1 m/s 624 mmHg 91%
    23:00 +9°C° 0 mm 1 m/s 624 mmHg 92%

    Mâine, 17 Iulie, Marţi

    Timp Temperatura Precipitaţii Vânt Presiune Umiditate
    00:00 +8°C° 0 mm 2 m/s 624 mmHg 93%
    01:00 +7°C° 0 mm 2 m/s 624 mmHg 94%
    02:00 +7°C° 0,1 mm 2 m/s 624 mmHg 94%
    03:00 +7°C° 0,1 mm 2 m/s 624 mmHg 95%
    04:00 +7°C° 0,1 mm 2 m/s 625 mmHg 95%
    05:00 +8°C° 0,1 mm 2 m/s 625 mmHg 92%
    06:00 +9°C° 0,1 mm 2 m/s 626 mmHg 89%
    07:00 +12°C° 0,1 mm 2 m/s 626 mmHg 86%
    08:00 +13°C° 0,4 mm 2 m/s 627 mmHg 80%
    09:00 +14°C° 0,4 mm 2 m/s 627 mmHg 74%
    10:00 +16°C° 0,4 mm 2 m/s 628 mmHg 69%
    11:00 +16°C° 0,5 mm 3 m/s 628 mmHg 68%
    12:00 +16°C° 0,5 mm 3 m/s 628 mmHg 68%
    13:00 +17°C° 0,5 mm 3 m/s 628 mmHg 67%
    14:00 +17°C° 0,4 mm 3 m/s 628 mmHg 66%
    15:00 +17°C° 0,4 mm 3 m/s 628 mmHg 65%
    16:00 +17°C° 0,4 mm 3 m/s 628 mmHg 64%
    17:00 +16°C° 0,3 mm 2 m/s 628 mmHg 70%
    18:00 +14°C° 0,3 mm 2 m/s 628 mmHg 77%
    19:00 +13°C° 0,3 mm 2 m/s 628 mmHg 84%
    20:00 +12°C° 0,1 mm 2 m/s 627 mmHg 87%
    21:00 +9°C° 0,1 mm 2 m/s 627 mmHg 91%
    22:00 +8°C° 0,1 mm 2 m/s 627 mmHg 94%
    23:00 +8°C° 0 mm 2 m/s 627 mmHg 93%

    Poimâine, 18 Iulie, Miercuri

    Timp Temperatura Precipitaţii Vânt Presiune Umiditate
    00:00 +7°C° 0 mm 2 m/s 627 mmHg 92%
    01:00 +7°C° 0 mm 2 m/s 627 mmHg 92%
    02:00 +7°C° 0 mm 2 m/s 627 mmHg 91%
    03:00 +6°C° 0 mm 2 m/s 627 mmHg 91%
    04:00 +6°C° 0 mm 2 m/s 627 mmHg 91%
    05:00 +8°C° 0 mm 2 m/s 627 mmHg 86%
    06:00 +9°C° 0 mm 2 m/s 628 mmHg 82%
    07:00 +12°C° 0 mm 2 m/s 629 mmHg 77%
    08:00 +14°C° 0 mm 2 m/s 629 mmHg 70%
    09:00 +16°C° 0 mm 2 m/s 630 mmHg 63%
    10:00 +18°C° 0 mm 2 m/s 630 mmHg 56%
    11:00 +18°C° 0 mm 2 m/s 631 mmHg 53%
    12:00 +19°C° 0 mm 2 m/s 631 mmHg 49%
    13:00 +20°C° 0 mm 2 m/s 631 mmHg 45%
    14:00 +20°C° 0 mm 2 m/s 631 mmHg 47%
    15:00 +20°C° 0 mm 2 m/s 631 mmHg 48%
    16:00 +20°C° 0 mm 2 m/s 630 mmHg 50%
    17:00 +18°C° 0 mm 2 m/s 630 mmHg 60%
    18:00 +18°C° 0 mm 1 m/s 630 mmHg 70%
    19:00 +15°C° 0 mm 1 m/s 629 mmHg 80%
    20:00 +14°C° 0 mm 1 m/s 629 mmHg 85%
    21:00 +12°C° 0 mm 1 m/s 629 mmHg 89%
    22:00 +10°C° 0 mm 1 m/s 628 mmHg 94%
    23:00 +10°C° 0 mm 1 m/s 628 mmHg 94%

    19 Iulie, Joi

    Timp Temperatura Precipitaţii Vânt Presiune Umiditate
    00:00 +9°C° 0 mm 1 m/s 628 mmHg 94%
    01:00 +9°C° 0 mm 1 m/s 628 mmHg 95%
    02:00 +9°C° 0 mm 1 m/s 628 mmHg 94%
    03:00 +8°C° 0 mm 1 m/s 627 mmHg 93%
    04:00 +8°C° 0 mm 1 m/s 627 mmHg 92%
    05:00 +10°C° 0 mm 1 m/s 628 mmHg 85%
    06:00 +12°C° 0 mm 1 m/s 629 mmHg 79%
    07:00 +13°C° 0 mm 0 m/s 629 mmHg 72%
    08:00 +15°C° 0 mm 0 m/s 630 mmHg 64%
    09:00 +19°C° 0 mm 1 m/s 631 mmHg 55%
    10:00 +21°C° 0 mm 1 m/s 632 mmHg 47%
    11:00 +22°C° 0 mm 1 m/s 632 mmHg 45%
    12:00 +22°C° 0 mm 1 m/s 631 mmHg 43%
    13:00 +23°C° 0 mm 1 m/s 631 mmHg 41%
    14:00 +23°C° 0,1 mm 2 m/s 631 mmHg 45%
    15:00 +21°C° 0,1 mm 2 m/s 631 mmHg 48%
    16:00 +21°C° 0,1 mm 2 m/s 631 mmHg 51%
    17:00 +20°C° 0,8 mm 1 m/s 630 mmHg 63%
    18:00 +19°C° 0,8 mm 1 m/s 630 mmHg 74%
    19:00 +16°C° 0,8 mm 1 m/s 629 mmHg 85%
    20:00 +15°C° 0,5 mm 1 m/s 629 mmHg 87%
    21:00 +13°C° 0,5 mm 1 m/s 628 mmHg 89%
    22:00 +12°C° 0,5 mm 1 m/s 628 mmHg 91%
    23:00 +12°C° 0,2 mm 1 m/s 628 mmHg 91%

    20 Iulie, Vineri

    Timp Temperatura Precipitaţii Vânt Presiune Umiditate
    00:00 +11°C° 0,2 mm 1 m/s 628 mmHg 91%
    01:00 +11°C° 0,2 mm 1 m/s 627 mmHg 91%
    02:00 +11°C° 0,1 mm 1 m/s 627 mmHg 91%
    03:00 +11°C° 0,1 mm 1 m/s 627 mmHg 91%
    04:00 +10°C° 0,1 mm 1 m/s 627 mmHg 91%
    05:00 +12°C° 0 mm 1 m/s 627 mmHg 88%
    06:00 +13°C° 0 mm 1 m/s 627 mmHg 85%
    07:00 +14°C° 0 mm 1 m/s 628 mmHg 82%
    08:00 +18°C° 0 mm 1 m/s 628 mmHg 72%
    09:00 +20°C° 0 mm 1 m/s 629 mmHg 62%
    10:00 +22°C° 0 mm 1 m/s 630 mmHg 52%
    11:00 +22°C° 0,3 mm 1 m/s 629 mmHg 53%
    12:00 +23°C° 0,3 mm 1 m/s 629 mmHg 54%
    13:00 +23°C° 0,3 mm 2 m/s 629 mmHg 55%
    14:00 +21°C° 2 mm 2 m/s 628 mmHg 62%
    15:00 +20°C° 2 mm 2 m/s 628 mmHg 69%
    16:00 +19°C° 2 mm 2 m/s 628 mmHg 76%
    17:00 +19°C° 1,7 mm 1 m/s 627 mmHg 81%
    18:00 +16°C° 1,7 mm 1 m/s 627 mmHg 87%
    19:00 +15°C° 1,7 mm 1 m/s 626 mmHg 92%
    20:00 +14°C° 0,3 mm 1 m/s 626 mmHg 93%
    21:00 +13°C° 0,3 mm 1 m/s 626 mmHg 94%
    22:00 +12°C° 0,3 mm 1 m/s 625 mmHg 95%
    23:00 +12°C° 0,6 mm 1 m/s 625 mmHg 96%

    21 Iulie, Sâmbătă

    Timp Temperatura Precipitaţii Vânt Presiune Umiditate
    00:00 +11°C° 0,6 mm 1 m/s 625 mmHg 97%
    01:00 +11°C° 0,6 mm 1 m/s 625 mmHg 97%
    02:00 +11°C° 1,1 mm 1 m/s 624 mmHg 97%
    03:00 +11°C° 1,1 mm 1 m/s 624 mmHg 97%
    04:00 +11°C° 1,1 mm 1 m/s 624 mmHg 97%
    05:00 +11°C° 0,8 mm 1 m/s 624 mmHg 96%
    06:00 +12°C° 0,8 mm 1 m/s 625 mmHg 94%
    07:00 +13°C° 0,8 mm 1 m/s 625 mmHg 93%
    08:00 +14°C° 0,8 mm 1 m/s 625 mmHg 90%
    09:00 +14°C° 0,8 mm 1 m/s 625 mmHg 86%
    10:00 +15°C° 0,8 mm 1 m/s 626 mmHg 82%
    11:00 +15°C° 1,2 mm 1 m/s 625 mmHg 83%
    12:00 +15°C° 1,2 mm 1 m/s 625 mmHg 83%
    13:00 +15°C° 1,2 mm 1 m/s 625 mmHg 84%
    14:00 +14°C° 1,3 mm 1 m/s 625 mmHg 86%
    15:00 +14°C° 1,3 mm 1 m/s 625 mmHg 89%
    16:00 +13°C° 1,3 mm 1 m/s 624 mmHg 92%
    17:00 +13°C° 1 mm 1 m/s 624 mmHg 93%
    18:00 +12°C° 1 mm 1 m/s 624 mmHg 94%
    19:00 +12°C° 1 mm 1 m/s 624 mmHg 96%
    20:00 +11°C° 0,7 mm 1 m/s 624 mmHg 96%
    21:00 +10°C° 0,7 mm 2 m/s 624 mmHg 97%
    22:00 +9°C° 0,7 mm 2 m/s 624 mmHg 97%
    23:00 +9°C° 0,8 mm 2 m/s 624 mmHg 97%
    Arată mai mult